Wind_Speed
26 30 36 38 38 39 40 41 44 45 42 40 42 46 49 47 43 44 48 48 48 49 48 46 45 44 44 40 37 35 36 36 36 37 37 36 35 32 31 33 33 31
25 29 34 37 39 41 40 38 40 46 46 43 43 47 51 50 45 43 47 50 50 49 49 48 46 44 43 41 39 37 37 36 36 35 35 35 34 33 31 31 34 34
23 28 32 34 37 41 41 38 38 42 46 46 47 50 52 53 50 45 43 47 51 51 50 49 46 43 42 41 40 39 38 37 36 35 33 33 32 33 32 30 31 33
22 25 30 33 36 37 38 39 39 41 45 49 50 52 54 54 53 49 44 45 49 51 50 50 48 44 41 41 40 39 39 38 36 34 33 32 31 31 31 31 31 31
21 23 28 33 34 34 36 40 42 42 45 49 51 52 54 52 49 47 45 44 46 47 47 48 48 45 42 42 41 39 38 39 37 34 33 33 32 31 30 31 32 33
23 21 24 30 32 33 36 40 43 45 47 48 49 51 53 50 44 43 42 41 43 45 45 47 47 45 42 41 42 40 38 39 37 35 34 34 33 32 31 31 32 33
24 22 22 26 30 33 35 37 41 46 49 49 48 49 51 50 46 43 39 38 41 44 44 45 45 43 41 41 42 41 39 39 39 37 35 35 34 34 34 33 32 33
24 24 23 23 28 33 34 35 39 44 47 48 48 46 47 50 50 46 39 35 38 42 43 44 44 42 41 41 41 41 41 42 42 41 39 36 35 35 34 34 34 35
25 25 25 23 25 30 34 35 37 42 45 46 45 43 44 48 50 48 42 38 37 40 41 41 41 41 40 42 42 42 43 43 42 42 40 38 37 35 33 33 33 35
26 25 25 25 24 27 33 35 34 35 38 40 40 42 45 47 47 46 45 43 40 40 40 39 39 41 41 42 43 42 42 42 41 41 41 40 39 37 35 34 34 34
25 25 25 25 24 24 29 33 33 31 31 32 35 39 43 44 44 43 43 44 42 39 39 38 38 41 42 41 42 41 41 40 40 40 41 41 41 40 37 36 35 35
25 24 25 25 23 23 26 29 30 28 27 28 31 34 37 39 41 43 42 43 44 43 42 40 39 42 44 43 41 40 38 38 38 38 38 39 40 40 39 38 36 35
24 23 24 24 23 24 25 25 26 26 26 26 29 33 36 37 39 43 42 42 46 46 45 44 42 42 44 44 43 40 37 36 37 37 37 38 39 39 39 38 37 36
23 23 23 23 23 24 24 23 23 26 26 24 26 31 35 36 37 40 40 40 45 47 47 46 44 41 41 43 44 42 38 36 36 38 39 39 39 39 38 39 39 39
23 22 22 22 21 21 22 22 21 23 26 27 27 29 33 36 36 37 39 40 44 48 48 46 45 44 42 41 41 41 40 37 36 39 41 40 40 40 40 41 41 41
23 22 21 22 20 19 21 21 18 18 20 24 27 29 33 36 37 39 41 41 43 48 50 47 46 45 43 41 40 41 42 39 37 39 41 41 41 42 41 41 42 42
21 20 20 21 19 18 20 19 16 14 16 18 22 27 31 35 37 40 43 41 41 46 49 48 46 42 40 41 42 42 42 40 38 40 42 42 42 43 42 41 40 40
19 18 18 19 17 17 19 18 15 13 14 16 19 23 26 30 33 37 42 43 43 44 46 46 44 39 37 39 41 42 42 40 39 40 41 42 43 43 43 42 40 39
19 18 18 19 17 16 18 17 14 11 11 14 15 19 24 28 30 33 39 43 43 44 44 43 40 38 38 36 35 38 41 40 40 40 40 41 42 44 44 43 41 40
19 19 19 19 17 16 17 17 14 11 11 13 14 17 22 28 31 31 35 39 41 41 42 42 40 38 39 39 36 37 41 43 42 42 42 43 43 45 45 44 42 40
20 19 18 19 18 16 15 15 15 14 12 13 14 15 19 24 28 29 31 35 37 37 38 41 40 37 36 38 38 39 44 47 46 44 45 47 47 47 47 46 43 41
21 21 20 18 17 16 15 14 14 13 12 11 12 14 17 20 24 27 28 31 32 33 34 38 40 38 36 37 38 38 39 44 47 47 46 45 45 45 47 48 45 41
23 22 22 20 16 15 14 13 12 12 12 11 11 13 14 16 19 22 26 29 31 32 32 32 34 34 31 32 35 37 35 36 42 46 45 41 37 37 38 42 44 43
23 22 22 20 17 15 13 12 12 12 12 12 13 12 11 12 16 18 22 27 31 33 31 29 29 27 23 22 27 34 37 37 39 44 47 45 41 38 37 36 38 39
23 22 21 20 19 17 15 13 12 12 12 12 13 14 12 12 15 16 18 22 24 25 26 27 29 28 26 23 21 27 37 41 39 39 42 43 43 44 44 43 41 40
23 22 22 20 19 18 16 14 12 10 10 10 12 14 14 13 14 14 16 18 18 18 20 24 28 31 32 30 25 25 34 41 42 40 39 38 38 41 44 46 47 46
Wind_Direction
256 250 246 244 244 244 242 240 239 236 234 238 237 232 228 223 218 214 211 212 214 217 217 215 212 208 207 209 207 206 210 210 211 214 216 217 214 212 210 206 205 212
260 252 249 246 244 246 247 244 241 237 236 238 240 236 231 226 221 216 214 214 214 216 216 214 213 211 207 206 206 208 210 211 212 213 215 217 215 212 212 210 208 209
271 258 251 248 246 247 246 244 242 240 238 239 239 238 233 228 223 218 218 218 216 215 215 213 212 212 208 204 205 209 210 211 211 212 214 215 214 213 212 211 212 213
280 268 257 252 251 250 246 244 242 241 240 239 238 235 234 231 225 220 219 220 217 216 215 213 211 210 210 206 205 208 211 211 212 212 212 214 215 215 213 211 213 217
282 274 265 259 257 253 247 243 241 241 240 238 237 235 234 234 229 221 219 218 217 217 216 214 211 209 209 208 206 207 210 212 212 211 212 213 215 216 215 213 214 217
285 279 270 265 262 258 253 246 241 240 240 238 238 239 237 236 233 225 219 218 217 216 215 213 211 209 208 208 206 206 209 211 210 210 212 213 214 216 216 216 217 219
288 286 279 269 264 261 257 251 245 241 239 237 238 242 239 233 232 227 220 219 219 217 215 213 210 207 206 207 207 206 208 209 209 209 211 214 214 215 217 217 218 222
289 287 284 275 265 261 257 253 248 243 240 237 236 240 239 232 230 227 221 219 220 219 216 215 211 206 204 205 207 206 206 207 208 208 208 211 213 214 216 218 219 221
289 288 288 283 272 263 260 257 250 243 244 245 240 237 239 236 232 228 223 219 220 220 217 215 213 209 205 205 207 207 205 205 207 208 207 209 211 213 214 217 219 221
289 290 290 290 282 270 265 263 258 253 253 254 249 243 241 239 234 232 229 222 219 219 217 215 215 214 210 209 210 209 207 204 204 206 208 209 211 212 213 214 215 218
290 292 293 294 293 286 274 267 267 269 265 256 252 248 243 238 235 235 233 226 221 220 219 217 219 220 218 213 210 210 209 207 205 205 207 209 211 212 212 213 215 218
292 294 297 297 298 297 285 273 270 274 271 260 254 249 242 238 237 235 232 228 225 222 221 219 219 223 223 216 209 208 209 210 211 211 211 211 211 212 212 213 215 219
295 296 300 302 303 302 293 283 275 271 268 263 255 248 243 239 236 234 232 229 226 223 220 218 216 219 223 219 213 209 209 213 216 216 216 216 215 215 214 213 214 218
300 300 304 305 307 305 298 292 282 269 263 262 253 247 246 242 235 233 233 231 227 224 222 219 215 215 218 218 215 213 212 216 219 218 217 217 217 220 218 215 215 219
304 304 303 304 307 307 299 296 292 274 263 261 256 248 246 243 237 234 233 230 227 224 224 224 220 218 218 215 215 217 217 220 223 220 217 216 217 220 221 217 216 220
307 303 302 308 314 313 303 296 295 281 262 254 249 244 240 238 235 234 233 230 226 225 227 229 227 224 221 218 220 222 221 222 224 221 217 216 217 219 221 220 220 221
308 305 308 317 321 321 314 304 297 282 257 243 242 242 238 236 234 234 233 232 231 230 230 232 234 232 227 223 223 223 222 220 220 219 217 217 218 220 221 222 223 224
311 313 317 322 324 327 322 312 305 284 252 239 244 246 242 239 239 238 236 234 235 238 237 236 238 240 237 229 223 221 220 218 217 217 216 216 217 219 220 220 222 224
315 318 321 321 321 328 327 319 310 288 251 241 251 253 248 245 243 242 239 237 236 239 242 242 241 242 242 236 228 224 224 223 220 217 216 216 216 218 219 219 220 223
322 322 323 323 321 325 331 329 316 292 261 248 249 249 248 246 243 241 240 238 238 240 244 246 245 244 244 241 234 230 231 232 229 224 221 219 218 218 219 219 219 221
326 325 325 328 326 321 325 331 326 309 280 257 247 244 244 243 240 240 240 240 240 241 244 245 245 246 247 243 238 236 234 231 230 229 226 223 221 220 220 219 219 219
327 328 328 330 329 325 324 328 330 320 298 276 260 249 246 244 240 239 240 241 241 240 240 242 245 250 253 250 246 243 236 227 225 225 223 222 223 223 222 220 219 219
327 328 327 326 326 327 324 317 316 319 318 309 287 263 256 260 257 247 240 239 240 238 239 242 246 251 255 252 246 244 242 236 232 230 228 225 224 223 225 226 223 222
327 326 326 325 320 315 309 300 297 301 306 310 303 289 275 273 273 263 249 242 239 236 237 240 241 243 245 241 239 244 247 245 241 241 242 240 236 232 235 240 238 231
327 325 323 320 312 304 299 296 293 290 291 296 300 299 288 272 270 270 261 254 246 238 235 236 238 240 240 232 230 242 248 245 243 246 248 247 244 241 241 245 248 245
329 326 322 318 313 309 305 298 289 281 278 277 283 289 289 281 279 279 273 265 256 244 236 235 237 238 238 234 230 234 241 243 244 247 249 250 250 248 246 246 247 249
Height
1461 1461 1460 1461 1461 1460 1461 1462 1463 1464 1466 1468 1471 1473 1473 1470 1467 1465 1466 1468 1469 1470 1470 1471 1472 1474 1476 1478 1480 1482 1483 1486 1489 1491 1493 1495 1497 1499 1501 1503 1505 1507
1457 1457 1456 1456 1456 1455 1456 1458 1458 1459 1460 1462 1465 1469 1470 1468 1464 1461 1461 1463 1464 1466 1467 1468 1469 1470 1473 1475 1477 1479 1480 1483 1485 1488 1490 1492 1494 1496 1498 1500 1502 1504
1452 1452 1451 1451 1451 1450 1451 1452 1453 1454 1456 1457 1459 1462 1464 1463 1461 1458 1456 1458 1460 1462 1464 1466 1467 1468 1470 1473 1475 1476 1477 1480 1482 1484 1487 1489 1491 1494 1496 1498 1500 1502
1447 1447 1446 1446 1446 1445 1446 1447 1447 1448 1450 1452 1453 1455 1457 1457 1457 1455 1453 1454 1457 1459 1462 1464 1465 1466 1467 1470 1472 1473 1475 1477 1479 1481 1484 1486 1488 1491 1493 1496 1498 1500
1444 1443 1442 1441 1441 1441 1441 1441 1441 1443 1445 1447 1449 1451 1452 1454 1456 1455 1453 1453 1455 1458 1460 1462 1463 1464 1465 1467 1469 1470 1472 1473 1476 1479 1481 1483 1485 1487 1490 1492 1494 1496
1440 1440 1439 1437 1436 1437 1436 1435 1436 1438 1441 1442 1445 1447 1448 1452 1455 1454 1453 1453 1454 1456 1458 1459 1460 1460 1461 1463 1465 1467 1468 1470 1472 1475 1477 1479 1482 1484 1486 1488 1490 1493
1436 1436 1436 1435 1433 1431 1431 1431 1432 1434 1437 1439 1441 1442 1444 1449 1452 1452 1452 1453 1453 1455 1456 1456 1456 1456 1456 1459 1461 1463 1464 1466 1468 1471 1473 1475 1477 1480 1482 1484 1486 1489
1432 1432 1432 1432 1431 1428 1427 1428 1429 1430 1432 1434 1436 1437 1439 1444 1448 1449 1449 1449 1449 1452 1453 1453 1453 1452 1452 1454 1456 1457 1458 1459 1462 1464 1467 1469 1472 1475 1477 1480 1483 1485
1428 1428 1428 1427 1427 1426 1425 1425 1426 1427 1428 1428 1429 1433 1435 1439 1442 1444 1444 1444 1444 1446 1448 1450 1451 1449 1448 1449 1451 1452 1452 1454 1457 1460 1463 1465 1467 1469 1472 1476 1479 1481
1425 1424 1424 1423 1422 1422 1421 1420 1421 1422 1424 1424 1425 1428 1432 1434 1436 1437 1438 1439 1440 1442 1444 1446 1449 1447 1445 1445 1447 1448 1449 1451 1453 1456 1459 1461 1462 1464 1467 1470 1473 1476
1422 1421 1420 1419 1418 1417 1416 1415 1416 1416 1418 1421 1422 1423 1427 1430 1431 1431 1432 1433 1436 1438 1440 1441 1444 1444 1443 1442 1443 1445 1446 1447 1449 1451 1454 1457 1459 1461 1464 1466 1468 1471
1419 1418 1417 1415 1414 1413 1411 1410 1412 1412 1414 1417 1419 1418 1421 1425 1426 1426 1427 1429 1431 1433 1435 1437 1437 1438 1439 1439 1439 1441 1443 1444 1446 1448 1450 1453 1455 1458 1461 1463 1466 1468
1415 1415 1414 1412 1411 1409 1407 1406 1408 1410 1410 1412 1415 1415 1415 1417 1419 1420 1422 1425 1427 1428 1430 1431 1431 1432 1435 1438 1438 1438 1439 1441 1442 1445 1447 1450 1452 1455 1457 1459 1462 1464
1412 1412 1411 1410 1408 1406 1404 1403 1404 1406 1407 1408 1410 1411 1412 1412 1413 1415 1418 1420 1422 1424 1424 1425 1426 1426 1429 1433 1435 1436 1436 1437 1438 1440 1442 1445 1448 1451 1454 1456 1457 1460
1410 1410 1408 1407 1405 1403 1401 1400 1400 1401 1402 1404 1404 1406 1407 1408 1409 1410 1412 1414 1416 1418 1419 1420 1421 1421 1423 1426 1430 1432 1434 1434 1435 1436 1438 1440 1444 1447 1450 1452 1453 1455
1408 1407 1405 1403 1402 1400 1398 1396 1396 1397 1397 1398 1399 1401 1403 1403 1403 1405 1407 1409 1411 1413 1414 1415 1417 1418 1420 1422 1425 1428 1430 1431 1432 1434 1435 1437 1440 1443 1446 1448 1450 1452
1406 1405 1403 1401 1400 1398 1396 1393 1393 1393 1393 1393 1395 1396 1398 1399 1399 1399 1401 1404 1407 1408 1409 1411 1414 1417 1419 1420 1421 1424 1427 1428 1429 1431 1433 1434 1436 1439 1441 1444 1446 1448
1403 1402 1401 1399 1398 1396 1394 1392 1390 1390 1390 1390 1391 1392 1394 1395 1395 1396 1397 1400 1402 1403 1405 1408 1411 1415 1418 1419 1419 1421 1424 1425 1426 1428 1430 1431 1433 1435 1437 1439 1442 1443
1401 1400 1398 1397 1396 1395 1393 1390 1389 1388 1387 1386 1387 1389 1389 1390 1391 1393 1394 1396 1397 1399 1402 1406 1409 1412 1417 1419 1420 1422 1424 1424 1424 1425 1426 1428 1429 1431 1433 1435 1436 1438
1398 1397 1396 1396 1394 1393 1392 1389 1387 1387 1386 1384 1384 1385 1385 1386 1387 1389 1391 1392 1394 1396 1399 1403 1406 1409 1412 1416 1419 1421 1422 1423 1423 1422 1422 1423 1424 1426 1428 1429 1431 1433
1396 1394 1394 1394 1393 1391 1390 1389 1387 1387 1386 1384 1382 1382 1383 1383 1384 1385 1387 1389 1391 1393 1395 1398 1402 1405 1408 1411 1415 1417 1418 1418 1420 1420 1420 1420 1420 1421 1422 1424 1426 1427
1394 1393 1392 1391 1391 1390 1389 1388 1388 1387 1386 1384 1382 1382 1382 1381 1381 1383 1385 1387 1388 1390 1392 1394 1398 1401 1404 1406 1410 1414 1415 1415 1415 1416 1415 1415 1416 1418 1420 1421 1422 1423
1393 1392 1391 1389 1389 1388 1387 1386 1386 1386 1385 1384 1383 1382 1382 1381 1381 1382 1383 1384 1386 1388 1389 1391 1394 1397 1398 1399 1402 1408 1412 1414 1415 1413 1411 1412 1414 1417 1419 1421 1421 1420
1391 1390 1388 1387 1385 1384 1384 1383 1383 1383 1384 1383 1382 1382 1381 1381 1382 1382 1383 1382 1383 1384 1386 1388 1390 1392 1393 1392 1395 1401 1406 1409 1411 1411 1411 1413 1415 1418 1419 1420 1420 1420
1388 1387 1385 1384 1382 1381 1381 1381 1381 1381 1381 1381 1381 1380 1380 1380 1381 1383 1383 1381 1380 1381 1383 1384 1385 1387 1389 1388 1390 1395 1400 1403 1405 1406 1407 1410 1413 1416 1418 1418 1419 1420
1386 1384 1382 1380 1378 1377 1377 1378 1378 1378 1379 1379 1379 1379 1378 1378 1379 1381 1382 1381 1380 1379 1379 1380 1381 1383 1385 1386 1386 1389 1394 1397 1400 1401 1402 1405 1408 1411 1413 1414 1416 1417